Flag for U.S.A. Weather past 2 weeks in Cleveland, Ohio, U.S.A.

Now
48 °F

Overcast.


Feels Like: 42 °F
Forecast: 46 / 53 °F
Wind: 14 mph from North

Location: Cleveland-Hopkins International Airport

Current Time: Oct 22, 2014 at 12:57:53 AM

Latest Report: Oct 21, 2014 at 11:51 PM


Visibility: 10 mi

Pressure: 30.15 "Hg

Humidity: 83%

Dew point: 43 °F

Location of ClevelandLocation

Historic Weather in Cleveland — Graph

°F

Cleveland temperature yesterday

Maximum temperature yesterday: 53 °F (at 2:51 AM)
Minimum temperature yesterday: 47 °F (at 4:51 PM)
Average temperature yesterday: 49 °F

Past Weeks' High & Low Weather Summary

 TemperatureHumidityPressure
High77 °F (Oct 14, 2:51 PM)97% (Oct 16, 2:04 AM)30.26 "Hg (Oct 16, 2:04 AM)
Low33 °F (Oct 12, 5:51 AM)41% (Oct 12, 4:51 PM)29.56 "Hg (Oct 17, 2:51 PM)
Average54 °F76%29.94 "Hg
* Reported Oct 6 10:51 PM — Oct 21 10:51 PM, Cleveland, Weather by CustomWeather, © 2014

Note: Actual official high and low records may vary slightly from our data, if they occured in-between our weather recording intervals... More about our weather records

Advertising

Cleveland weather history for previous 24 hours

 ConditionsComfort  
Time TempWeatherWind HumidityBarometerVisibility
10:51 PM
Oct 21
47 °FLight rain. Overcast.13 mph90%30.15 "Hg9 mi
9:51 PM47 °FLight rain. Mostly cloudy.15 mph90%30.14 "Hg10 mi
9:02 PM47 °FLight rain. Mostly cloudy.16 mph90%30.11 "Hg9 mi
8:51 PM47 °FLight rain. Overcast.10 mph90%30.11 "Hg10 mi
7:51 PM47 °FLight rain. Fog.15 mph90%30.09 "Hg6 mi
7:00 PM47 °FLight rain. Fog.20 mph90%30.07 "Hg6 mi
5:51 PM47 °FLight rain. Mostly cloudy.12 mph86%30.06 "Hg7 mi
4:51 PM47 °FLight rain. Fog.16 mph86%30.04 "Hg3 mi
3:51 PM48 °FLight rain. Cloudy.15 mph83%30.02 "Hg7 mi
2:51 PM48 °FMore clouds than sun.15 mph83%30.00 "Hg10 mi
1:51 PM49 °FLight rain. More clouds than sun.16 mph77%30.00 "Hg10 mi
12:51 PM49 °FMore clouds than sun.20 mph84%29.99 "Hg10 mi
11:51 AM49 °FLight rain. Fog.17 mph84%29.98 "Hg5 mi
11:01 AM49 °FLight rain. Fog.13 mph93%29.96 "Hg6 mi
10:51 AM49 °FLight rain. Fog.13 mph93%29.96 "Hg2 mi
9:51 AM50 °FLight rain. Mostly cloudy.13 mph89%29.94 "Hg10 mi
8:51 AM51 °FLight rain. Mostly cloudy.12 mph83%29.93 "Hg10 mi
7:51 AM50 °FOvercast.9 mph89%29.91 "Hg10 mi
6:51 AM51 °FMostly cloudy.9 mph86%29.90 "Hg10 mi
5:51 AM51 °FOvercast.9 mph89%29.88 "Hg9 mi
4:51 AM51 °FLight rain. Fog.12 mph92%29.87 "Hg4 mi
3:51 AM52 °FLight rain. Fog.7 mph93%29.86 "Hg3 mi
2:51 AM53 °FLight rain. Fog.7 mph93%29.85 "Hg4 mi
1:57 AM52 °FLight rain. Fog.6 mph97%29.86 "Hg3 mi
12:51 AM52 °FFog.7 mph97%29.86 "Hg4 mi
Weather by CustomWeather, © 2014

See weather overviewHow to use our weather pages